Hourly Data Report for October 23, 2015

All times are specified in Local Standard Time (LST). Add 1 hour to adjust for Daylight Saving Time where and when it is observed.

KAMLOOPS A
BRITISH COLUMBIA

50°42'09.000" N
120°26'55.000" W
345.30 m
1163781
71887
YKA

Download Data

Hourly Data (October 2015)
Hourly Data Report for October 23, 2015
Temp Definition
°C
Dew Point Temp Definition
°C
Rel Hum Definition
%
Wind Dir Definition
10's deg

Wind Spd Definition
km/h
Visibility Definition
km
Stn Press Definition
kPa
Hmdx Definition


Wind Chill Definition


Weather Definition


TIME
00:00 Legend Double Dagger 1.7 -1.2 81 5 3 64.4 98.16     LegendNANA
01:00 Legend Double Dagger 2.0 -1.6 77 9 4 64.4 98.18     Mainly Clear
02:00 Legend Double Dagger 1.8 -1.3 80 36 1 64.4 98.21     LegendNANA
03:00 Legend Double Dagger 2.5 0.1 84 13 3 64.4 98.20     LegendNANA
04:00 Legend Double Dagger 1.4 -0.7 86 4 7 64.4 98.22     Mostly Cloudy
05:00 Legend Double Dagger 1.8 -0.5 85 5 6 64.4 98.24     LegendNANA
06:00 Legend Double Dagger 1.2 -0.6 88 8 8 64.4 98.25     LegendNANA
07:00 Legend Double Dagger 0.4 -0.8 92 8 8 64.4 98.26     Mostly Cloudy
08:00 Legend Double Dagger 2.6 0.8 88 4 7 64.4 98.28     LegendNANA
09:00 Legend Double Dagger 5.2 1.3 76 9 7 64.4 98.26     LegendNANA
10:00 Legend Double Dagger 6.7 0.8 66 12 6 64.4 98.17     Clear
11:00 Legend Double Dagger 9.1 1.5 59 10 5 64.4 98.09     LegendNANA
12:00 Legend Double Dagger 10.7 1.8 54 13 5 64.4 97.98     LegendNANA
13:00 Legend Double Dagger 12.0 2.0 50 12 6 64.4 97.88     Clear
14:00 Legend Double Dagger 12.9 2.2 48 16 5 64.4 97.80     LegendNANA
15:00 Legend Double Dagger 13.8 2.1 45 12 3 64.4 97.76     LegendNANA
16:00 Legend Double Dagger 13.3 2.0 46 4 3 64.4 97.71     Mainly Clear
17:00 Legend Double Dagger 10.0 2.2 58 19 3 64.4 97.72     LegendNANA
18:00 Legend Double Dagger 7.4 1.1 64 25 5 64.4 97.76     LegendNANA
19:00 Legend Double Dagger 6.2 1.9 74 31 4 64.4 97.84     Clear
20:00 Legend Double Dagger 7.3 2.2 70 21 6 64.4 97.87     LegendNANA
21:00 Legend Double Dagger 4.2 0.5 77 36 3 64.4 97.91     LegendNANA
22:00 Legend Double Dagger 3.4 -0.1 78 36 2 64.4 97.96     Clear
23:00 Legend Double Dagger 3.9 0.6 79 14 3 64.4 98.01     LegendNANA

Notes on Data Quality.

Legend

  • E = Estimated
  • M = Missing
  • NA = Not Available
  • ‡ = Partner data that is not subject to review by the National Climate Archives
Date modified: